Regional Weather Roundup
Issued by NWS

Home | Current Version | Previous Version | Text Only | Print | Product List | Glossary On
Versions: 1 2 3 4 5 6 7 8 9 10 11 12 13 14 15 16 17 18 19 20 21 22 23 24 25 26 27 28 29 30 31 32 33 34 35 36 37 38 39 40 41 42 43 44 45 46 47 48 49 50
000
ASUS43 KLSX 261807
RWRMO

WEATHER SUMMARY FOR MISSOURI
NATIONAL WEATHER SERVICE SPRINGFIELD MO
100 PM CDT SUN APR 26 2015

NOTE: "FAIR" INDICATES FEW OR NO CLOUDS BELOW 12,000 FEET WITH NO
       SIGNIFICANT WEATHER AND/OR OBSTRUCTIONS TO VISIBILITY.
       CURRENT SKY AND/OR WEATHER CONDITIONS ARE NOT AVAILABLE FOR
       CHILLICOTHE AND FARMINGTON.

MOZ001>031-035>038-043-044-053-054-261900-
...NORTHERN AND WESTERN MISSOURI...

CITY           SKY/WX    TMP DP  RH WIND       PRES   REMARKS
KANSAS CTY INT CLOUDY    54  44  69 NE10      29.99F
6HR MIN TEMP:  47; 6HR MAX TEMP:  56;

KANSAS C DTWN  CLOUDY    55  43  63 E13       29.99S
6HR MIN TEMP:  49; 6HR MAX TEMP:  56;

LEE`S SUMMIT   CLOUDY    54  43  66 E13       29.99S
6HR MIN TEMP:  47; 6HR MAX TEMP:  54;

ST JOSEPH      MOSUNNY   59  42  53 NE12G23   30.00F
6HR MIN TEMP:  47; 6HR MAX TEMP:  59;

CHILLICOTHE      N/A     60  39  45 E9        30.02F
6HR MIN TEMP:  47; 6HR MAX TEMP:  60;

KIRKSVILLE     SUNNY     58  39  49 NE13      30.02S
6HR MIN TEMP:  41; 6HR MAX TEMP:  58;


$$
MOZ066>068-077>081-088>096-101>105-261900-
...SOUTHWEST MISSOURI...

CITY           SKY/WX    TMP DP  RH WIND       PRES   REMARKS
SPRINGFIELD    CLOUDY    52  45  77 NE14      29.91R
6HR MIN TEMP:  51; 6HR MAX TEMP:  55;

JOPLIN         CLOUDY    57  49  74 E12G21    29.89F
6HR MIN TEMP:  52; 6HR MAX TEMP:  57;


$$
MOZ032>034-039>042-045>050-055>058-069>072-261900-
...CENTRAL MISSOURI...

CITY           SKY/WX    TMP DP  RH WIND       PRES   REMARKS
COLUMBIA       SUNNY     60  39  45 NE14G20   29.97S
6HR MIN TEMP:  46; 6HR MAX TEMP:  60;

JEFFERSON CITY MOSUNNY   59  39  47 E8        29.95F
6HR MIN TEMP:  47; 6HR MAX TEMP:  60;

ROLLA          CLOUDY    55  43  63 E8        29.92F
6HR MIN TEMP:  45; 6HR MAX TEMP:  56;

SEDALIA        PTSUNNY   59  45  59 NE13      29.97F
6HR MIN TEMP:  48; 6HR MAX TEMP:  57;

WHITEMAN AFB   PTSUNNY   53  44  71 NE12G17   29.96F
WARRENSBURG    CLOUDY    54  43  66 NE9       29.98F
OSAGE BEACH    CLOUDY    54  43  66 E10       29.95F

$$
MOZ051-052-059>065-261900-
...EAST CENTRAL MISSOURI...

CITY           SKY/WX    TMP DP  RH WIND       PRES   REMARKS
ST LOUIS INTL  MOSUNNY   60  37  42 N13G20    29.96F
6HR MIN TEMP:  48; 6HR MAX TEMP:  60;

SPIRIT OF STL  MOSUNNY   59  36  42 NE10G21   29.95S
6HR MIN TEMP:  47; 6HR MAX TEMP:  59;

ST CHARLES     SUNNY     59  40  49 NE14G21   29.96F
6HR MIN TEMP:  47; 6HR MAX TEMP:  60;


$$
MOZ072>076-082>087-097>100-106>115-261900-
...SOUTH CENTRAL AND SOUTHEAST MISSOURI...

CITY           SKY/WX    TMP DP  RH WIND       PRES   REMARKS
CAPE GIRARDEAU CLOUDY    58  46  64 N13       29.90F
6HR MIN TEMP:  49; 6HR MAX TEMP:  58;

FARMINGTON     MOSUNNY   55  45  67 E13       29.95F
6HR MIN TEMP:  45; 6HR MAX TEMP:  55;

POPLAR BLUFF   CLOUDY    56  46  69 N14       29.89F
6HR MIN TEMP:  52; 6HR MAX TEMP:  57;

WEST PLAINS    CLOUDY    51  44  77 NE8       29.92S
6HR MIN TEMP:  48; 6HR MAX TEMP:  52;


$$



USA.gov is the U.S. government's official web portal to all federal, state and local government web resources and services.